Location: Powder Track
(41.8531°N, 72.3584°W)
Time: 12:05:39
(UTC+00:00)

Tiros 1 - All Passes

Search period start: 04 August 2021 00:00
Search period end: 14 August 2021 00:00
Orbit: 630 x 664 km, 48.4° (Epoch: 03 August)

Date Brightness Start Highest point End Pass type
(mag) Time Alt. Az. Time Alt. Az. Time Alt. Az.
04 Aug - 01:31:47 10° WNW 01:36:18 41° N 01:40:46 10° E visible
04 Aug - 03:14:05 10° WNW 03:18:49 84° SSW 03:23:30 10° ESE visible
04 Aug - 04:57:15 10° W 05:00:30 19° SW 05:03:42 10° S visible
04 Aug - 20:50:14 10° SSW 20:54:44 41° SE 20:59:14 10° ENE daylight
04 Aug - 22:32:08 10° W 22:36:53 58° NNW 22:41:35 10° ENE daylight
05 Aug - 00:15:15 10° WNW 00:19:41 37° N 00:24:05 10° ENE daylight
05 Aug - 01:57:49 10° WNW 02:02:31 56° NNE 02:07:08 10° E visible
05 Aug - 03:40:12 10° WNW 03:44:40 43° SW 03:49:03 10° SSE visible
05 Aug - 19:35:38 10° S 19:38:53 18° SE 19:42:09 10° E daylight
05 Aug - 21:15:46 10° SW 21:20:34 81° SSE 21:25:21 10° ENE daylight
05 Aug - 22:58:31 10° W 23:03:04 42° NNW 23:07:37 10° ENE daylight
06 Aug - 00:41:29 10° WNW 00:46:00 40° N 00:50:28 10° E visible
06 Aug - 02:23:48 10° WNW 02:28:34 89° SSW 02:33:16 10° ESE visible
06 Aug - 04:06:50 10° W 04:10:16 20° SW 04:13:41 10° S visible
06 Aug - 20:00:03 10° SSW 20:04:29 38° SE 20:08:56 10° ENE daylight
06 Aug - 21:41:49 10° WSW 21:46:35 61° NNW 21:51:19 10° ENE daylight
06 Aug - 23:24:55 10° WNW 23:29:22 37° N 23:33:48 10° ENE daylight
07 Aug - 01:07:32 10° WNW 01:12:14 54° NNE 01:16:50 10° E visible
07 Aug - 02:49:53 10° WNW 02:54:25 46° SW 02:58:53 10° SE visible
07 Aug - 18:45:38 10° S 18:48:40 17° SE 18:51:42 10° E daylight
07 Aug - 20:25:30 10° SW 20:30:18 76° SSE 20:35:06 10° ENE daylight
07 Aug - 22:08:11 10° W 22:12:46 43° NNW 22:17:20 10° ENE daylight
07 Aug - 23:51:11 10° WNW 23:55:41 40° N 00:00:09 10° ENE daylight
08 Aug - 01:33:31 10° WNW 01:38:18 86° NNE 01:43:00 10° ESE visible
08 Aug - 03:16:25 10° W 03:20:03 22° SW 03:23:39 10° S visible
08 Aug - 19:09:53 10° SSW 19:14:15 35° SE 19:18:37 10° ENE daylight
08 Aug - 20:51:31 10° WSW 20:56:18 64° NNW 21:01:04 10° ENE daylight
08 Aug - 22:34:35 10° WNW 22:39:04 37° N 22:43:30 10° ENE daylight
09 Aug - 00:17:15 10° WNW 00:21:55 52° NNE 00:26:33 10° E daylight
09 Aug - 01:59:34 10° WNW 02:04:10 50° SW 02:08:42 10° SE visible
09 Aug - 17:55:41 10° SSE 17:58:27 15° SE 18:01:13 10° E daylight
09 Aug - 19:35:14 10° SW 19:40:01 71° SSE 19:44:49 10° ENE daylight
09 Aug - 21:17:51 10° W 21:22:28 44° NNW 21:27:04 10° ENE daylight
09 Aug - 23:00:52 10° WNW 23:05:23 39° N 23:09:51 10° ENE daylight
10 Aug - 00:43:13 10° WNW 00:48:01 82° NNE 00:52:45 10° ESE visible
10 Aug - 02:26:02 10° W 02:29:51 24° SW 02:33:36 10° S visible
10 Aug - 18:19:43 10° SSW 18:23:59 33° SE 18:28:17 10° ENE daylight
10 Aug - 20:01:13 10° WSW 20:06:00 68° NNW 20:10:47 10° ENE daylight
10 Aug - 21:44:16 10° WNW 21:48:45 38° N 21:53:12 10° ENE daylight
10 Aug - 23:26:57 10° WNW 23:31:38 50° NNE 23:36:15 10° E daylight
11 Aug - 01:09:16 10° WNW 01:13:55 54° SW 01:18:31 10° SE visible
11 Aug - 02:54:27 10° WSW 02:55:18 10° SW 02:56:07 10° SW visible
11 Aug - 17:05:47 10° SSE 17:08:14 14° SE 17:10:41 10° E daylight
11 Aug - 18:45:00 10° SW 18:49:45 66° SSE 18:54:32 10° ENE daylight
11 Aug - 20:27:31 10° W 20:32:09 46° NNW 20:36:47 10° ENE daylight
11 Aug - 22:10:33 10° WNW 22:15:04 38° N 22:19:32 10° ENE daylight
11 Aug - 23:52:56 10° WNW 23:57:44 77° NNE 00:02:29 10° ESE daylight
12 Aug - 01:35:39 10° W 01:39:37 26° SW 01:43:31 10° SSE visible
12 Aug - 17:29:34 10° SSW 17:33:45 30° SE 17:37:57 10° ENE daylight
12 Aug - 19:10:54 10° WSW 19:15:43 71° NNW 19:20:31 10° ENE daylight
12 Aug - 20:53:56 10° WNW 20:58:26 38° N 21:02:55 10° ENE daylight
12 Aug - 22:36:40 10° WNW 22:41:19 48° NNE 22:45:57 10° E daylight
13 Aug - 00:18:58 10° WNW 00:23:40 59° SW 00:28:18 10° SE visible
13 Aug - 02:03:26 10° WSW 02:05:06 12° SW 02:06:44 10° SSW visible
13 Aug - 16:15:58 10° SSE 16:18:00 13° SE 16:20:04 10° ESE daylight
13 Aug - 17:54:45 10° SW 17:59:29 61° SE 18:04:14 10° ENE daylight
13 Aug - 19:37:11 10° W 19:41:51 47° NNW 19:46:30 10° ENE daylight
13 Aug - 21:20:15 10° WNW 21:24:45 38° N 21:29:14 10° ENE daylight
13 Aug - 23:02:39 10° WNW 23:07:27 73° NNE 23:12:12 10° ESE daylight
